DELTA 1 DEB, 19512

Orbit data source: Space-Track

DELTA 1 DEB, 19512 is space debris in SSO originally from a launch on Tue, 06 Nov 1973 UTC launched from the Air Force Western Test Range (AFWTR). Debris objects in space refer to the collection of defunct objects orbiting the Earth. Examples of debris include non-operational satellites, rocket bodies, and fragments generated from explosions, collisions, or faulty payload assembly.

Loading next visibility...
Identifier
19512, 1973-086HF
Orbit
SSO
Country
Flag of USUS
Related business
Manufacturer
Unknown
Mission
Spacecraft
Bus & Motor
Unknown
Mass
Unknown
Launch date (UTC)
1973-11-06 (53 years ago)
Launch vehicle
Unknown
Launch site
Air Force Western Test Range (AFWTR)
Object type
Payload
Rocket body
Debris
Shape & HBR
Unknown shape, 0.1 m
Radar Cross Section
Small (<0.1 m²)

Expand to show TLE details & history
Last TLE update: 20 hours ago

TLE from 20 hours ago
0 DELTA 1 DEB
1 19512U 73086HF  26262.96851772 -.00000024  00000-0  17802-3 0  9993
2 19512 102.4080 274.1430 0029141 289.2710 100.2531 12.35229188729171
Epoch: 2026-09-19T23:14Z
TLE epoch observation values (Epoch: 2026-09-19T23:14:39.931Z)
Latitude
29.1331°
Longitude
-80.40183°
Altitude
1,534.345 km
Speed
7.1 km/s
True Right ascension
17h 48m 32s
True Declination
29° 00' 05"
Sunlit
Object was in daylight at epoch
Visualization orbit readout
Latitude
Unknown
Longitude
Unknown
Altitude
Unknown
Speed
Unknown
Apparent Right ascension
Unknown
Apparent Declination
Unknown
Sunlit
N/A
Visualization observer readout
Local Sidereal Time
11:59:01
Azimuth
Unknown
Elevation
Unknown
Doppler factor
Unknown
Orbital elements
Apogee altitude
1,547.527 km
Perigee altitude
1,501.469 km
Semi-major axis
7,902.635 km
Eccentricity
0.00291
Inclination
102.408°
RAAN
274.143°
Arg. of periapsis
289.271°
True anomaly
100.58148°
Mean anomaly
100.2531°
Eccentric anomaly
100.41731°
Mean motion
3.08948 °/min
Orbital period
116.52 mins
BSTAR
0.00017802
Loading maneuver chart data...
Computing Atmospheric mass density...
Loading historical data...
Loading historical data...
Loading historical data...
Loading historical data...
Loading historical data...
Loading historical data...
Loading historical data...

Documentation

Showing up to 5 results
|